• MPC Preparation (Info)

  • MPEC 2014-R57 : 2014 QE434

    The following Minor Planet Electronic Circular may be linked-to from your own Web pages, but must not otherwise be redistributed electronically.

    A form allowing access to any MPEC is at the bottom of this page.


    Read MPEC 2014-R56 Read MPEC 2014-R58


    M.P.E.C. 2014-R57                                Issued 2014 Sept. 6, 14:09 UT
    
         The Minor Planet Electronic Circulars contain information on unusual
             minor planets and routine data on comets.  They are published
       on behalf of Commission 20 of the International Astronomical Union by the
              Minor Planet Center, Smithsonian Astrophysical Observatory,
                              Cambridge, MA 02138, U.S.A.
    
                 Prepared using the Tamkin Foundation Computer Network
    
                                  MPC@CFA.HARVARD.EDU
                URL https://www.minorplanetcenter.net/    ISSN 1523-6714
    
                                      2014 QE434
    
    Observations:
         K14Qh4E* C2014 08 30.59625 02 39 43.716-26 31 01.64         21.1 wLER057F51
         K14Qh4E  C2014 08 30.61866 02 39 47.884-26 31 27.10         21.0 wLER057F51
         K14Qh4E  C2014 08 30.62788 02 39 49.600-26 31 37.17         21.0 wLER057F51
         K14Qh4E KC2014 08 31.49749 02 43 01.54 -26 47 14.8          19.8 RoER057291
         K14Qh4E KC2014 08 31.49899 02 43 01.79 -26 47 16.3          20.2 RoER057291
         K14Qh4E KC2014 08 31.50049 02 43 02.03 -26 47 17.6          20.2 RoER057291
         K14Qh4E _C2014 08 31.55925302 43 16.974-26 48 01.19         19.8 RtER057568
         K14Qh4E _C2014 08 31.56050502 43 17.176-26 48 02.56         20.0 RtER057568
         K14Qh4E _C2014 08 31.56175902 43 17.377-26 48 03.84         19.9 RtER057568
         K14Qh4E 2C2014 09 04.60327102 53 43.861-27 38 25.65         21.5 RtER057568
         K14Qh4E 2C2014 09 04.60439802 53 43.961-27 38 26.27         21.2 RtER057568
         K14Qh4E 2C2014 09 04.60682602 53 44.146-27 38 27.46         21.3 RtER057568
    
    Observer details:
    291 LPL/Spacewatch II.  Observer T. H. Bressi.  1.8-m f/2.7 reflector + CCD.
    568 Mauna Kea.  Observers R. J. Wainscoat, D. Woodworth, D. J. Tholen.
        Measurers M. Micheli, R. J. Wainscoat, D. J. Tholen.  2.24-m University of
        Hawaii reflector, 3.6-m Canada-France-Hawaii Telescope + CCD.
    F51 Pan-STARRS 1, Haleakala.  Observers N. Primak, A. Schultz, T. Goggia,
        M. Willman.  Measurers B. Bolin, K. Chambers, S. Chastel, L. Denneau,
        H. Flewelling, M. Huber, E. Magnier, E. Schunova, R. Wainscoat, C. Waters.
        1.8-m Ritchey-Chretien + CCD.
    
    Orbital elements:
    2014 QE434                                               Earth MOID = 0.0214 AU
    Epoch 2014 Dec. 9.0 TT = JDT 2457000.5                  MPC
    M  36.78934              (2000.0)            P               Q
    n   0.31527866     Peri.  175.67325     +0.77871485     +0.61787458
    a   2.1379933      Node   145.39741     -0.58120415     +0.77576517
    e   0.5174700      Incl.   11.04402     -0.23623064     +0.12813820
    P   3.13           H   24.1           G   0.15           U   4
    Residuals in seconds of arc
    140830 F51  0.0   0.1-    140831 291  0.0   0.1+    140831 568  0.2+  0.1-
    140830 F51  0.0   0.1-    140831 291  0.1-  0.3+    140904 568  0.1-  0.0
    140830 F51  0.0   0.1+    140831 568  0.2+  0.1-    140904 568  0.1+  0.0
    140831 291  0.1-  0.2+    140831 568  0.2+  0.2-    140904 568  0.0   0.1+
    
    Ephemeris:
    2014 QE434               a,e,i = 2.14, 0.52, 11                  q = 1.0316
    Date    TT    R. A. (2000) Decl.     Delta      r     Elong.  Phase     V
    2014 08 07    17 39 26.0 +30 27 14   0.05444 1.0353   111.5    65.7    20.2
    ...
    2014 08 22    01 23 20.3 -19 09 50   0.03621 1.0359   131.4    47.1    18.7
    ...
    2014 08 30    02 37 16.1 -26 17 40   0.07496 1.0491   119.8    56.6    20.6
    ...
    2014 09 05    02 54 28.4 -27 41 01   0.1056  1.0646   119.7    55.4    21.4
    2014 09 06    02 56 09.9 -27 49 22   0.1107  1.0676   119.9    54.9    21.5
    2014 09 07    02 57 37.5 -27 56 44   0.1158  1.0708   120.2    54.5    21.6
    ...
    2014 09 13    03 02 41.3 -28 25 24   0.1466  1.0921   122.5    51.0    22.0
    ...
    2014 09 21    03 02 45.9 -28 34 37   0.1876  1.1264   126.7    45.6    22.5
    ...
    2014 10 06    02 51 57.0 -27 32 40   0.2679  1.2057   135.5    35.5    23.1
    
    A. U. Tomatic                (C) Copyright 2014 MPC           M.P.E.C. 2014-R57
    

    Read MPEC 2014-R56 Read MPEC 2014-R58


    MPEC number:

    Enter an MPEC number in one of the following forms:

    • 1997-B01 (the full form)
    • J97B01 (the packed version of the full form)
    • B01 (the abbreviated form)